RAX-2
1 37853U 11061D 14156.05160020 .00005495 00000-0 38055-3 0 8239
2 37853 101.7153 179.9060 0217227 091.9173 329.1333 14.89266287140854
AUBIESAT
1 37854U 11061E 14156.04874832 .00005679 00000-0 38121-3 0 8050
2 37854 101.7191 181.7193 0215248 089.1562 331.0782 14.90577871140909
HRBE
1 37855U 11061F 14156.03102985 .00005931 00000-0 40193-3 0 8124
2 37855 101.7195 181.0751 0217525 090.4588 324.1546 14.89895960140877
RS-39
1 38051U 11062C 14156.79362457 .00048678 00000-0 60850-3 0 6056
2 38051 051.6264 280.0997 0002470 172.1760 311.0369 15.59328904132336
E-STAR
1 38079U 12006C 14156.05691916 .00086603 48673-5 10304-2 0 8737
2 38079 069.4536 023.6213 0376459 012.5035 133.5122 15.06921862121639
GOLIAT
1 38085U 12006J 14156.77051824 .00084755 47133-5 10643-2 0 971
2 38085 069.4581 028.5569 0399156 014.9292 346.3246 15.01193716121561
HORYU-2
1 38340U 12025D 14156.87663301 .00000869 00000-0 14501-3 0 8726
2 38340 098.2591 113.8846 0011424 208.1956 151.8653 14.72505776110137
RS-40
1 38735U 12041C 14156.12668952 .00000024 00000-0 10000-3 0 5862
2 38735 082.4733 295.0577 0015924 281.7551 078.1735 12.42559693 84087
PROITERES
1 38756U 12047B 14156.79442812 .00000544 00000-0 88733-4 0 8958
2 38756 098.2289 244.9012 0013477 064.6854 295.5748 14.74955590 93502
BEESAT-3
1 39134U 13015E 14156.22515951 .00002406 00000-0 17909-3 0 6041
2 39134 064.8766 176.4125 0026887 309.5746 050.2998 15.05166417 61860
BEESAT-2
1 39136U 13015G 14156.55018359 .00002088 00000-0 15954-3 0 5907
2 39136 064.8761 175.8240 0027000 309.5240 050.3471 15.04572692 61902
LO-75
1 39382U 13064C 14156.43010563 .00036489 00000-0 79851-3 0 2578
2 39382 040.4938 165.5074 0017125 156.7264 203.4342 15.43231720 30245
ZACUBE-1
1 39417U 13066B 14156.73057545 .00000696 00000-0 10066-3 0 3152
2 39417 097.7759 227.7458 0061067 280.8682 078.5640 14.78076778 29005
TRITON-1
1 39427U 13066M 14156.23716486 .00000511 00000-0 94240-4 0 1694
2 39427 097.7642 223.3304 0117408 288.9766 069.8744 14.65369376 28644
DELFIN3XT
1 39428U 13066N 14155.73277791 .00000859 00000-0 15714-3 0 1716
2 39428 097.7619 222.1340 0127872 292.2185 066.5480 14.63258006 28517
GOMX-1
1 39430U 13066Q 14156.69940958 .00000465 00000-0 97922-4 0 5356
2 39430 097.7603 221.1647 0155356 294.1027 064.3997 14.56808225 28544
MO-76
1 39436U 13066W 14156.75149651 .00005896 00000-0 61513-3 0 2277
2 39436 097.7780 230.5438 0024319 286.4369 073.4143 14.89901766 29179
LO-74
1 39440U 13066AA 14156.44811355 .00000637 00000-0 10175-3 0 1674
2 39440 097.7702 225.9090 0082555 283.4325 075.7709 14.73026344 28855
PUCPSAT-1
1 39442U 13066AC 14156.45136280 .00001186 00000-0 14054-3 0 1652
2 39442 097.7808 229.8793 0033662 285.1337 074.6166 14.86037179 27883
LITUANSAT
1 39569U 98067EN 14156.80375052 .00130812 00000-0 80138-3 0 2978
2 39569 051.6411 146.7780 0008546 030.7799 031.0434 15.76349821 15235
SHINAISAT
1 39572U 14009A 14156.73276057 .00032712 00000-0 28787-3 0 1356
2 39572 065.0082 082.6893 0016203 288.9903 070.9496 15.68449306 15317
OPUSAT
1 39575U 14009D 14156.80681369 .00135773 00000-0 57066-3 0 1659
2 39575 065.0049 078.3500 0013501 295.6579 064.3198 15.84765262 15408
TEIKYOSAT
1 39576U 14009E 14156.91758854 .00043746 00000-0 33500-3 0 1404
2 39576 065.0067 081.0112 0014621 302.6769 057.2974 15.71735730 15364
IFT-1
1 39577U 14009F 14156.77769204 .00081820 00000-0 46667-3 0 1481
2 39577 065.0070 079.7932 0014067 303.6511 056.3322 15.78334003 15376
CO-77
1 39578U 14009G 14137.79435183 .04930316 75580-5 46746-3 0 1855
2 39578 064.9698 141.4483 0010610 288.0688 072.6747 16.37966192 12465
STARS-II
1 39579U 14009H 14116.06110564 .20186783 77451-5 52661-3 0 1329
2 39579 064.9886 219.0071 0013010 293.8065 069.6132 16.44611049 9028
SPROUT
1 39770U 14029E 14156.18807537 .00000705 00000-0 94153-4 0 256
2 39770 097.8701 253.5278 0009905 359.2997 000.8212 14.82577315 1769
